Flag for U.S.A. Weather past 2 weeks in Lexington, North Carolina, U.S.A.

Now
77 °F

Partly sunny.


Feels Like: 78 °F
Forecast: 59 / 79 °F
Wind: 3 mph from East

Location: Davidson County Airport

Current Time: Apr 18, 2015 at 4:36:35 PM

Latest Report: Apr 18, 2015 at 3:55 PM


Visibility: 10 mi

Pressure: 29.95 "Hg

Humidity: 59%

Dew point: 61 °F

Location of LexingtonLocation

Historic Weather in Lexington — Graph

°F

Lexington temperature yesterday

Maximum temperature yesterday: 70 °F (at 3:55 PM)
Minimum temperature yesterday: 53 °F (at 3:35 AM)
Average temperature yesterday: 60 °F

Past Weeks' High & Low Weather Summary

 TemperatureHumidityPressure
High84 °F (Apr 10, 3:55 PM)99% (Apr 7, 6:55 AM)30.38 "Hg (Apr 7, 6:55 AM)
Low31 °F (Apr 5, 7:15 AM)13% (Apr 4, 4:35 PM)29.83 "Hg (Apr 4, 2:15 AM)
Average63 °F70%30.15 "Hg
* Reported Apr 3 3:15 PM — Apr 18 3:15 PM, Lexington, Weather by CustomWeather, © 2015

Note: Actual official high and low records may vary slightly from our data, if they occured in-between our weather recording intervals... More about our weather records

Advertising

Lexington weather history for previous 24 hours

 ConditionsComfort  
Time TempWeatherWind HumidityBarometerVisibility
3:15 PM
Sat, Apr 18
77 °FMore clouds than sun.No wind58%29.96 "Hg4 mi
2:55 PM77 °FOvercast.No wind60%29.96 "Hg10 mi
2:35 PM74 °FOvercast.3 mph70%29.98 "Hg10 mi
2:15 PM72 °FOvercast.No wind84%29.99 "Hg10 mi
1:55 PM69 °FLight rain. Broken clouds.No wind95%29.99 "Hg5 mi
1:35 PM70 °FHeavy rain. More clouds than sun.No wind88%29.99 "Hg1 mi
1:15 PM73 °FMostly cloudy.No wind73%30.00 "Hg10 mi
12:55 PM73 °FMostly cloudy.3 mph73%30.00 "Hg10 mi
12:35 PM74 °FBroken clouds.No wind71%30.00 "Hg10 mi
12:15 PM75 °FBroken clouds.3 mph69%30.01 "Hg10 mi
11:55 AM74 °FBroken clouds.3 mph72%30.02 "Hg10 mi
11:35 AM72 °FScattered clouds.3 mph73%30.02 "Hg10 mi
11:15 AM73 °FBroken clouds.3 mph72%30.02 "Hg10 mi
10:55 AM72 °FScattered clouds.6 mph71%30.02 "Hg10 mi
10:35 AM71 °FScattered clouds.7 mph76%30.02 "Hg10 mi
10:15 AM68 °FSunny.5 mph81%30.02 "Hg10 mi
9:55 AM67 °FScattered clouds.5 mph82%30.01 "Hg10 mi
9:35 AM65 °FPartly sunny.No wind85%30.01 "Hg10 mi
9:15 AM64 °FBroken clouds.3 mph90%30.01 "Hg10 mi
8:55 AM62 °FMostly cloudy.3 mph96%30.02 "Hg7 mi
8:35 AM61 °FFog.3 mph99%30.01 "Hg2 mi
8:15 AM61 °FFog.No wind99%30.01 "Hg1 mi
7:55 AM61 °FFog.No wind99%30.01 "Hg1 mi
7:35 AM61 °FFog.No wind98%30.01 "Hg1 mi
7:15 AM61 °FFog.No wind99%30.01 "Hg1 mi
6:55 AM60 °FFog.No wind99%30.00 "Hg1 mi
6:35 AM61 °FFog.No wind99%30.00 "Hg1 mi
6:15 AM61 °FFog.No wind98%30.00 "Hg1 mi
5:55 AM61 °FFog.No wind98%30.00 "Hg1 mi
5:35 AM61 °FFog.No wind98%29.99 "Hg1 mi
5:15 AM61 °FFog.No wind98%29.99 "Hg1 mi
4:55 AM61 °FLight rain. Low clouds.No wind98%29.99 "Hg2 mi
4:35 AM61 °FFog.No wind98%29.99 "Hg3 mi
4:15 AM61 °FFog.No wind98%29.98 "Hg4 mi
3:55 AM60 °FFog.No wind98%29.98 "Hg5 mi
3:35 AM60 °FFog.No wind98%29.98 "Hg4 mi
3:15 AM60 °FFog.No wind98%29.97 "Hg3 mi
2:55 AM60 °FFog.No wind99%29.98 "Hg3 mi
2:35 AM60 °FFog.No wind99%29.99 "Hg2 mi
2:15 AM60 °FFog.No wind98%30.00 "Hg4 mi
1:55 AM60 °FFog.No wind99%30.00 "Hg3 mi
1:35 AM60 °FFog.No wind98%30.00 "Hg4 mi
12:55 AM60 °FFog.No wind98%30.03 "Hg5 mi
12:35 AM59 °FFog.No wind98%30.03 "Hg2 mi
12:15 AM60 °FFog.No wind98%30.03 "Hg3 mi
11:55 PM
Fri, Apr 17
60 °FFog.No wind98%30.03 "Hg4 mi
11:15 PM61 °FClear.No wind98%30.03 "Hg7 mi
10:55 PM61 °FClear.No wind98%30.03 "Hg7 mi
10:15 PM61 °FClear.No wind97%30.04 "Hg7 mi
9:55 PM61 °FClear.No wind97%30.04 "Hg10 mi
9:15 PM62 °FClear.No wind96%30.03 "Hg10 mi
8:55 PM62 °FSunny.No wind95%30.02 "Hg10 mi
8:35 PM64 °FSunny.No wind90%30.02 "Hg10 mi
8:15 PM64 °FSunny.No wind89%30.01 "Hg10 mi
7:55 PM65 °FSunny.No wind87%30.01 "Hg10 mi
7:35 PM65 °FSunny.No wind87%30.00 "Hg10 mi
7:15 PM66 °FSunny.No wind83%30.01 "Hg10 mi
6:55 PM67 °FSunny.3 mph81%30.01 "Hg10 mi
6:30 PM67 °FSunny.5 mph80%30.01 "Hg10 mi
6:15 PM67 °FSunny.5 mph79%30.02 "Hg10 mi
5:55 PM67 °FSunny.3 mph80%30.02 "Hg10 mi
5:15 PM68 °FScattered clouds.3 mph77%30.02 "Hg10 mi
4:55 PM68 °FPartly sunny.6 mph77%30.03 "Hg10 mi
4:35 PM69 °FMore clouds than sun.3 mph75%30.03 "Hg10 mi
4:15 PM69 °FBroken clouds.6 mph76%30.03 "Hg10 mi
Weather by CustomWeather, © 2015

See weather overviewHow to use our weather pages